EB2EMZ-3 Weather Reports


time (UTC)temp
C
wind
direction
speed
KPH
gust
KPH
rain 1hr
cm
rain 24hr
cm
rain mn
cm
humidity
%
barometer
mb
20260502210446 17 135 1.6 6.4 0.00 0.97 0.00 86 1018.1
20260502205946 17 135 6.4 14.5 0.00 0.97 0.00 86 1018.2
20260502205446 17 90 14.5 14.5 0.00 0.97 0.00 86 1018.2
20260502204946 17 90 14.5 14.5 0.00 0.97 0.00 86 1018.1
20260502204446 17 135 4.8 8.0 0.00 0.97 0.00 86 1018.1
20260502203946 17 135 8.0 8.0 0.00 0.97 0.00 86 1018.2
20260502203446 17 135 8.0 8.0 0.00 0.97 0.00 86 1018.1
20260502202946 17 135 0.0 0.0 0.00 0.97 0.00 86 1018.1
20260502202446 17 135 0.0 4.8 0.00 0.97 0.00 86 1018.2
20260502201946 17 112 4.8 4.8 0.00 0.97 0.00 86 1018.1
20260502201446 17 112 4.8 4.8 0.00 0.97 0.00 86 1018.1
20260502200946 17 67 4.8 4.8 0.00 0.97 0.00 86 1018.0
20260502200446 17 135 0.0 8.0 0.00 0.97 0.00 86 1018.1
20260502195946 17 135 8.0 8.0 0.00 0.97 0.00 85 1017.9
20260502195446 17 135 8.0 8.0 0.00 0.97 0.00 85 1018.0
20260502194946 17 67 3.2 3.2 0.00 0.97 0.00 85 1017.9
20260502194446 17 112 1.6 9.7 0.00 0.97 0.00 85 1017.9
20260502193946 17 45 9.7 9.7 0.00 0.97 0.00 85 1018.0
20260502193446 17 135 3.2 9.7 0.00 0.97 0.00 84 1017.9
20260502192946 17 112 9.7 9.7 0.00 0.97 0.00 84 1018.0
20260502192446 17 112 4.8 8.0 0.00 0.97 0.00 84 1018.1
20260502191946 17 112 3.2 8.0 0.00 0.97 0.00 84 1018.1
20260502191446 17 112 3.2 9.7 0.00 0.97 0.00 84 1018.2
20260502190946 17 135 9.7 9.7 0.00 0.97 0.00 84 1018.0
20260502190446 17 90 9.7 11.3 0.00 0.97 0.00 84 1018.0
20260502185946 17 112 11.3 14.5 0.00 0.97 0.00 83 1018.0
20260502185446 17 112 14.5 14.5 0.00 0.97 0.00 83 1017.9
20260502184947 17 112 9.7 9.7 0.00 0.97 0.00 83 1017.8
20260502184446 17 112 9.7 9.7 0.00 0.97 0.00 83 1017.7
20260502183946 17 67 8.0 8.0 0.00 0.97 0.00 83 1017.8
20260502183446 17 67 4.8 8.0 0.00 0.97 0.00 83 1017.9
20260502182946 17 112 8.0 8.0 0.00 0.97 0.00 83 1018.0
20260502182446 17 112 0.0 6.4 0.00 0.97 0.00 83 1018.1
20260502181946 18 112 6.4 6.4 0.00 0.97 0.00 82 1018.0
20260502181446 18 112 6.4 6.4 0.00 0.97 0.00 82 1018.1
20260502180947 18 112 6.4 9.7 0.00 0.97 0.00 82 1018.1
20260502180447 18 90 9.7 9.7 0.00 0.97 0.00 82 1018.3
20260502170447 18 112 3.2 14.5 0.00 0.97 0.00 81 1018.6
20260502163947 18 135 17.7 17.7 0.00 0.97 0.00 80 1018.8
20260502163447 18 67 3.2 17.7 0.00 0.97 0.00 80 1018.9
20260502162947 18 112 17.7 17.7 0.00 0.97 0.00 80 1018.7
20260502162447 18 112 6.4 12.9 0.00 0.97 0.00 79 1018.6
20260502161947 18 135 12.9 12.9 0.00 0.97 0.00 79 1018.7
20260502161447 18 67 8.0 9.7 0.00 0.97 0.00 79 1018.8
20260502160947 18 67 6.4 12.9 0.00 0.97 0.00 78 1018.7
20260502160447 19 45 3.2 11.3 0.00 0.97 0.00 77 1019.0
20260502151947 20 90 16.1 16.1 0.00 0.97 0.00 75 1019.2
20260502151447 20 157 6.4 6.4 0.00 0.97 0.00 76 1019.0
20260502150948 20 157 6.4 14.5 0.00 0.97 0.00 76 1019.2
20260502150447 20 112 14.5 14.5 0.00 0.97 0.00 76 1019.2
20260502130447 20 112 14.5 14.5 0.00 0.97 0.00 75 1020.8
20260502123448 20 112 12.9 12.9 0.00 0.97 0.00 76 1021.1
20260502122948 20 135 9.7 9.7 0.00 0.97 0.00 76 1021.0
20260502122448 20 90 9.7 9.7 0.00 0.97 0.00 76 1021.0
20260502121948 20 90 8.0 20.9 0.00 0.97 0.00 75 1021.1
20260502121448 20 90 6.4 12.9 0.00 0.97 0.00 74 1021.3
20260502120948 20 112 12.9 12.9 0.00 0.97 0.00 75 1021.2
20260502120448 20 112 12.9 12.9 0.00 0.97 0.00 75 1021.2
20260502115448 20 90 9.7 16.1 0.00 0.97 0.00 74 1021.3
20260502114948 20 112 4.8 6.4 0.00 0.97 0.00 74 1021.1
20260502114448 21 112 6.4 11.3 0.00 0.97 0.00 74 1021.2
20260502113948 21 112 8.0 16.1 0.00 0.97 0.00 74 1021.1
20260502113448 21 112 16.1 19.3 0.00 0.97 0.00 73 1021.1
20260502112948 21 135 19.3 19.3 0.00 0.97 0.00 73 1021.3
20260502112448 21 90 9.7 17.7 0.00 0.97 0.00 74 1021.5
20260502111948 21 112 17.7 17.7 0.00 0.97 0.00 74 1021.5
20260502111448 21 135 11.3 11.3 0.00 0.97 0.00 74 1021.6
20260502110948 21 112 11.3 11.3 0.00 0.97 0.00 74 1021.6
20260502110448 20 135 4.8 9.7 0.00 0.97 0.00 75 1021.5
20260502105948 20 112 9.7 9.7 0.00 0.97 0.00 74 1021.7
20260502105448 20 22 4.8 12.9 0.00 0.97 0.00 74 1021.8
20260502104948 20 112 12.9 12.9 0.00 0.97 0.00 74 1021.8
20260502104448 20 22 6.4 12.9 0.00 0.97 0.00 75 1021.9
20260502103948 20 157 9.7 9.7 0.00 0.97 0.00 76 1021.9
20260502103448 20 67 9.7 9.7 0.00 0.97 0.00 76 1021.7
20260502102948 20 112 9.7 9.7 0.00 0.97 0.00 76 1021.9
20260502102448 20 90 6.4 16.1 0.00 0.97 0.00 77 1021.7
20260502101948 20 112 16.1 16.1 0.00 0.97 0.00 76 1021.8
20260502101448 20 45 0.0 0.0 0.00 0.97 0.00 78 1021.8
20260502100948 20 45 0.0 0.0 0.00 0.97 0.00 78 1021.7
20260502100448 20 45 0.0 4.8 0.00 0.97 0.00 79 1021.6
20260502091448 19 135 14.5 14.5 0.00 0.97 0.00 80 1021.6
20260502090948 19 90 11.3 11.3 0.00 0.97 0.00 81 1021.8
20260502090448 18 112 6.4 6.4 0.00 0.97 0.00 82 1021.9
20260502071448 16 22 0.0 0.0 0.05 0.97 0.00 93 1022.1
20260502070948 16 22 0.0 1.6 0.05 0.97 0.00 93 1022.0
20260502070449 16 22 1.6 3.2 0.05 0.97 0.00 93 1022.1
20260502065949 16 22 0.0 6.4 0.05 0.97 0.00 93 1022.0
20260502065449 15 0 6.4 6.4 0.10 0.97 0.00 93 1022.1
20260502064949 15 45 0.0 4.8 0.10 0.97 0.00 93 1022.1
20260502064449 15 337 4.8 4.8 0.10 0.97 0.00 93 1022.0
20260502063949 15 45 1.6 1.6 0.10 0.97 0.00 93 1022.1
20260502063449 15 22 1.6 1.6 0.10 0.97 0.00 93 1021.9
20260502062949 15 45 0.0 4.8 0.10 0.97 0.00 93 1021.9
20260502062449 15 22 0.0 3.2 0.10 0.97 0.00 93 1022.0
20260502061949 15 45 0.0 0.0 0.10 0.91 0.00 93 1021.9
20260502061449 15 45 0.0 0.0 0.10 0.91 0.00 93 1021.9
20260502060949 15 45 0.0 4.8 0.25 0.91 0.00 93 1021.9
20260502060449 15 0 1.6 1.6 0.25 0.91 0.00 93 1021.8
20260502055949 15 22 1.6 3.2 0.25 0.91 0.00 93 1021.8
20260502055449 15 22 3.2 3.2 0.20 0.86 0.00 93 1021.7
20260502054949 15 45 0.0 0.0 0.20 0.86 0.00 93 1021.7
20260502054449 15 45 0.0 0.0 0.25 0.86 0.00 93 1021.7
20260502053949 15 45 0.0 0.0 0.25 0.86 0.00 93 1021.6
20260502053449 15 45 0.0 6.4 0.25 0.86 0.00 93 1021.6
20260502052949 15 0 6.4 6.4 0.25 0.86 0.00 93 1021.6
20260502052449 15 67 0.0 4.8 0.30 0.86 0.00 93 1021.5
20260502051949 15 135 4.8 4.8 0.46 0.81 0.00 93 1021.5
20260502051449 15 67 0.0 0.0 0.46 0.81 0.00 93 1021.5
20260502050949 15 67 0.0 3.2 0.30 0.66 0.00 92 1021.4
20260502050449 15 90 3.2 3.2 0.30 0.66 0.00 92 1021.4
20260502045949 15 67 0.0 0.0 0.41 0.66 0.00 92 1021.5
20260502045449 15 90 0.0 0.0 0.51 0.66 0.00 92 1021.5
20260502044949 15 112 0.0 8.0 0.51 0.66 0.00 92 1021.4
20260502044449 15 67 8.0 8.0 0.46 0.61 0.00 92 1021.3
20260502043949 15 45 0.0 0.0 0.46 0.61 0.00 92 1021.3
20260502043449 15 67 0.0 0.0 0.46 0.61 0.00 92 1021.2
20260502042949 15 22 0.0 0.0 0.41 0.56 0.00 92 1021.2
20260502042449 15 90 0.0 11.3 0.46 0.56 0.00 92 1021.1
20260502041949 15 67 0.0 3.2 0.30 0.36 0.00 92 1021.2
20260502041449 15 22 3.2 3.2 0.30 0.36 0.00 92 1021.3
20260502040949 16 67 0.0 4.8 0.30 0.36 0.00 92 1021.2
20260502040449 16 112 0.0 0.0 0.30 0.36 0.00 92 1021.3
20260502035949 16 90 0.0 0.0 0.20 0.25 0.00 92 1021.2
20260502035449 16 22 0.0 8.0 0.15 0.15 0.00 92 1021.4
20260502034949 16 112 8.0 8.0 0.15 0.15 0.00 91 1021.3
20260502034449 16 90 0.0 4.8 0.15 0.15 0.00 91 1021.3
20260502033949 16 45 4.8 4.8 0.15 0.15 0.00 91 1021.3
20260502033449 16 45 3.2 3.2 0.15 0.15 0.00 91 1021.1
20260502032949 16 45 0.0 0.0 0.10 0.10 0.00 91 1021.3
20260502032449 16 45 0.0 0.0 0.10 0.10 0.00 91 1021.1
20260502031949 16 112 0.0 9.7 0.05 0.05 0.00 91 1021.1
20260502031449 16 135 9.7 9.7 0.05 0.05 0.00 90 1021.2
20260502030949 16 112 0.0 6.4 0.05 0.05 0.00 90 1021.1
20260502030449 16 112 4.8 8.0 0.05 0.05 0.00 90 1021.3
20260502025949 16 135 8.0 8.0 0.05 0.05 0.00 89 1021.4
20260502025449 16 135 1.6 8.0 0.00 0.00 0.00 89 1021.4
20260502024949 17 90 6.4 6.4 0.00 0.00 0.00 88 1021.4
20260502024449 17 112 4.8 4.8 0.00 0.00 0.00 88 1021.3
20260502023949 17 112 4.8 9.7 0.00 0.00 0.00 88 1021.4
20260502023449 17 112 4.8 4.8 0.00 0.00 0.00 88 1021.3
20260502022949 17 112 4.8 4.8 0.00 0.00 0.00 88 1021.3
20260502022449 17 180 4.8 11.3 0.00 0.00 0.00 88 1021.3
20260502021949 17 135 11.3 11.3 0.00 0.00 0.00 88 1021.3
20260502021449 17 112 3.2 6.4 0.00 0.00 0.00 87 1021.4
20260502020949 17 112 6.4 12.9 0.00 0.00 0.00 87 1021.3
20260502020449 17 112 6.4 6.4 0.00 0.00 0.00 87 1021.3
20260502015949 17 67 4.8 11.3 0.00 0.00 0.00 87 1021.5
20260502015449 17 45 9.7 9.7 0.00 0.00 0.00 87 1021.3
20260502014949 17 0 9.7 9.7 0.00 0.00 0.00 87 1021.5
20260502014449 17 135 6.4 6.4 0.00 0.00 0.00 87 1021.6
20260502013949 17 90 6.4 6.4 0.00 0.00 0.00 87 1021.5
20260502013449 17 112 3.2 16.1 0.00 0.00 0.00 87 1021.6
20260502012949 17 157 16.1 16.1 0.00 0.00 0.00 87 1021.5
20260502012450 17 112 1.6 1.6 0.00 0.00 0.00 87 1021.5
20260502011949 17 90 1.6 4.8 0.00 0.00 0.00 87 1021.5
20260502011450 17 22 1.6 6.4 0.00 0.00 0.00 87 1021.8
20260502010950 17 90 1.6 4.8 0.00 0.00 0.00 87 1021.9
20260502010450 17 45 3.2 6.4 0.00 0.00 0.00 87 1022.0
20260502005950 17 45 6.4 6.4 0.00 0.00 0.00 87 1021.8
20260502005450 17 112 4.8 9.7 0.00 0.00 0.00 87 1022.0
20260502004950 17 67 9.7 9.7 0.00 0.00 0.00 87 1022.1
20260502004450 17 112 4.8 17.7 0.00 0.00 0.00 86 1022.0
20260502003950 17 112 17.7 17.7 0.00 0.00 0.00 86 1022.2
20260502003450 17 112 8.0 8.0 0.00 0.00 0.00 86 1022.2
20260502002950 17 112 8.0 8.0 0.00 0.00 0.00 86 1022.2
20260502002450 17 45 0.0 6.4 0.00 0.00 0.00 86 1022.2
20260502001950 17 135 3.2 3.2 0.00 0.00 0.00 86 1022.3
20260502001450 17 67 0.0 6.4 0.00 0.00 0.00 86 1022.2
20260502000950 17 112 6.4 6.4 0.00 0.00 0.00 86 1022.4
20260502000450 17 135 3.2 3.2 0.00 0.00 0.00 86 1022.3
20260501235950 17 22 1.6 3.2 0.00 0.00 0.00 86 1022.4
20260501235450 17 157 3.2 9.7 0.00 0.00 0.00 86 1022.5
20260501233450 17 135 16.1 16.1 0.00 0.00 0.00 85 1022.7
20260501232950 17 67 8.0 8.0 0.00 0.00 0.00 85 1022.7
20260501232450 17 67 0.0 6.4 0.00 0.00 0.00 85 1022.8
20260501231950 17 135 6.4 6.4 0.00 0.00 0.00 85 1023.0
20260501231450 17 67 1.6 1.6 0.00 0.00 0.00 85 1023.0
20260501230950 17 67 1.6 6.4 0.00 0.00 0.00 85 1022.9
20260501230450 17 112 6.4 6.4 0.00 0.00 0.00 84 1023.0
20260501225950 17 112 3.2 3.2 0.00 0.00 0.00 84 1023.0
20260501225450 17 22 0.0 6.4 0.00 0.00 0.00 84 1023.0
20260501224950 17 45 0.0 6.4 0.00 0.00 0.00 84 1022.9
20260501224450 17 22 3.2 3.2 0.00 0.00 0.00 84 1022.9
20260501223950 17 22 3.2 3.2 0.00 0.00 0.00 83 1022.8
20260501223450 17 112 0.0 0.0 0.00 0.00 0.00 83 1022.8
20260501222950 17 45 0.0 0.0 0.00 0.00 0.00 83 1022.8
20260501222450 17 90 0.0 8.0 0.00 0.00 0.00 83 1022.7
20260501221950 17 67 3.2 4.8 0.00 0.00 0.00 83 1022.8
20260501221450 17 135 4.8 4.8 0.00 0.00 0.00 83 1022.7
20260501220950 17 112 0.0 4.8 0.00 0.00 0.00 83 1022.9
20260501220450 17 22 0.0 0.0 0.00 0.00 0.00 82 1023.0
20260501215950 17 22 0.0 4.8 0.00 0.00 0.00 82 1023.0
20260501215450 17 90 4.8 4.8 0.00 0.00 0.00 82 1023.0
20260501214950 17 112 0.0 0.0 0.00 0.00 0.00 82 1023.0
20260501214450 17 112 0.0 8.0 0.00 0.00 0.00 82 1023.0
20260501213950 17 112 8.0 8.0 0.00 0.00 0.00 82 1023.0
20260501213450 17 67 0.0 0.0 0.00 0.00 0.00 82 1023.0
20260501212950 17 45 0.0 4.8 0.00 0.00 0.00 82 1023.0
20260501212450 17 45 4.8 4.8 0.00 0.00 0.00 82 1022.9
20260501211950 17 0 1.6 1.6 0.00 0.00 0.00 82 1023.0
20260501211450 17 45 0.0 1.6 0.00 0.00 0.00 82 1022.9
20260501210950 17 67 1.6 8.0 0.00 0.00 0.00 82 1023.1